Location: Central Falls
(41.8900°N, 71.3929°W)
Time: 03:38:58
(UTC+00:00)

Tiros 1 - Pass Details

Date: 07 December 2023
Orbit: 625 x 658 km, 48.4° (Epoch: 01 March)

Event Time Altitude Azimuth Distance (km) Brightness Sun altitude
Rises 11:57:23 0° 292° (WNW) 2,988 - -1.2°
Exits shadow 11:57:42 - 293° (WNW) 2,867 9.8 -1.1°
Reaches altitude 10° 11:59:50 10° 300° (WNW) 2,075 9.1 -0.8°
Maximum altitude 12:04:25 43° 12° (NNE) 929 7.9 0.0°
Drops below altitude 10° 12:08:57 10° 84° (E) 2,065 10.7 0.7°
Sets 12:11:24 0° 91° (E) 2,971 11.7 1.1°
